View from above orbital plane
|
View from above satellite
|
Ground track
|
The orbit data is extracted from the following two-line orbital elements,
1 41334U 16010A 21079.15560868 0.00000000 00000-0 00000-0 0 04
2 41334 122.9958 23.0635 0005815 151.0019 208.9980 13.41424225 02
Epoch (UTC): | 20 March 2021 03:44:04 |
Eccentricity: | 0.0005815 |
inclination: | 122.9958° |
perigee height: | 1099 km |
apogee height: | 1108 km |
right ascension of ascending node: | 23.0635° |
argument of perigee: | 151.0019° |
revolutions per day: | 13.41424225 |
mean anomaly at epoch: | 208.9980° |
orbit number at epoch: | 0 |
The dashed part of the orbit path shows where the satellite is in the earth's shadow,
|
|